Погода в Чите

Погода в Чите : погода сейчас, прогноз погоды и архив. Всё, что Вы хотите узнать о погоде в Чите!

Поиск расширенной информации на нашем сайте:

Другие новости

Новости СМИ2

Главная страница сайта

Новости сайта

03.07.2017

Напоминаем, что на нашем специализированном сайте Метеоцентр.Азия вы можете получить высокодетализированные автоматические прогнозы погоды по пунктам России, СНГ и мира в авиационном формате (включающие направление и скорость ветра, видимость, явления погоды, количество и форму облачности, нижнюю и верхнюю границу облачности).


Погода в Чите - сегодня

Время (UTC), дата Ветер
(°,м/с) 
Видим.   Явления Облачность Т
(°С)
Тd
(°С)
f(%) Тe
(°С)
Pmin
(гПа)
dP
(гПа)
Po
(мм)
O2
(г/м3)
Тmin Tmax R s Состояние
почвы
15 21.05.18 270 (З) 4{12}  50000 м    3/0 верхняя 
[Ci fib]
+3.2 -10.4 36 +1  1008.3  -1.1  697  278           
18 21.05.18 280 (З) 50000 м    ясно 
+1.3 -7.8 51 1007.4  -1.3  695  280           
21 21.05.18 250 (З) 5{11}  20000 м    3/0 верхняя 
[Ci fib]
+0.8 -6.4 59 -2  1005.6  -1.7  694  279           
00 22.05.18 270 (З) 6-11{12}  20000 м    10/6 600 м кучево-дожд., верхняя 
[Cb cap|Ci fib]
+2.8 -7.2 48 1003.1  -1.8  693  277  +0.3        сухая 
12 22.05.18 310 (СЗ) 7-14{15}  20000 м  в посл. час ливневой дождь  10/6 600 м кучево-дожд., верхняя 
[Cb cap|Ci fib]
+7.1 -2.4 51 +5  993.7  0.5  687  270    +9.5  0.3     
15 22.05.18 270 (З) 5{16}  50000 м    10/6 600 м кучево-дожд., средняя 
[Cb cap|Ac As]
+6.7 -2.3 53 +5  993  -0.7  687  270           
18 22.05.18 200 (Ю) 2{12}  50000 м    10/4 600 м кучево-дожд., средняя 
[Cb cap|Ac As]
+6.9 -5.7 40 +7  990.9  -1.9  685  270           
21 22.05.18 230 (ЮЗ) 20000 м    10/6 600 м кучево-дожд., средняя, верхняя 
[Cb cap|Ac trans|Ci fib]
+6.5 -2.6 52 +6  990.4  -0.5  685  270           
00 23.05.18 230 (ЮЗ) 5{11}  20000 м    10/8 600 м кучево-дожд., средняя 
[Cb cap|Ac As]
+7.6 -0.4 57 +6  989.8  -0.2  685  268  +6.5        сухая 
03 23.05.18 290 (З) 4{11}  20000 м    10/8 600 м кучево-дожд., средняя 
[Cb cap|Ac trans]
+11.1 -1.2 42 +10  988.8  685  265           
12 23.05.18 220 (ЮЗ) 3{12}  20000 м  {снег}  10/6 600 м кучево-дожд., средняя 
[Cb cap|Ac As]
+9.6 +3.9 68 +9  993.2  0.8  687  267    +15.7  0.0     
15 23.05.18 210 (ЮЗ) 50000 м    10/4 600 м кучево-дожд., средняя 
[Cb cap|Ac As]
+8.5 +5.3 80 +9  994.6  688  268           
18 23.05.18 070 (В) 50000 м    6/0 средняя, верхняя 
[Ac trans|Ci fib]
+4 +2.7 91 +5  997.9  1.8  690  273           
21 23.05.18 080 (В) 20000 м    6/3 1000 м верхняя 
[Sc|Ci fib]
+1.7 +0.9 94 +1  1001  2.2  691  277           
00 24.05.18 010 (С) 20000 м    3/1 1000 м верхняя 
[Cu med, cong|Ci fib]
+9.4 +4.4 71 +10  1000.9  693  269  +1.5        влажная 
03 24.05.18 010 (С) 20000 м    5/3 1000 м верхняя 
[Cu hum|Ci fib]
+15.7 +3.2 43 +17  1000  0.7  693  264           
06 24.05.18 190 (Ю) 20000 м    8/1 1000 м средняя, верхняя 
[Cu hum|Ac trans|Ci fib]
+19.7 +0.5 28 +21  998.7  -0.2  693  260           
09 24.05.18 070 (В) 20000 м    10/4 600 м кучево-дожд., средняя, верхняя 
[Cb cap|Ac trans|Ci fib]
+21.2 -0.8 23 +21  999.1  0.7  694  259           
15 24.05.18 090 (В) 50000 м    6/6 1000 м 
[Sc]
+14.3 +0.6 39 +16  1007  2.9  698  267           
18 24.05.18 300 (СЗ) 50000 м    8/4 600 м кучево-дожд., средняя 
[Cb cap|Ac trans]
+10.6 +1.5 53 +11  1009.7  1.6  699  271           
21 24.05.18 350 (С) 20000 м    3/0 верхняя 
[Ci fib]
+4 +0 75 +5  1012.7  0.9  700  278           
00 25.05.18 280 (З) 20000 м    ясно 
+12.1 +1.3 48 +13  1010.8  0.4  700  270  +3.8        сухая 
03 25.05.18 140 (ЮВ) 20000 м    1/0 верхняя 
[Ci fib]
+19.6 -3.5 21 +21  1008  -0.8  700  263           
06 25.05.18 130 (ЮВ) 3{13}  20000 м    1/0 верхняя 
[Ci fib]
+22.2 -5.9 15 +22  1005.7  -1.5  698  261           
09 25.05.18 140 (ЮВ) 20000 м    3/1 1000 м верхняя 
[Cu hum|Ci fib]
+22.5 -6.7 14 +23  1004.3  -1.2  698  260           
Время (UTC), дата Ветер
(°,м/с) 
Видим.   Явления Облачность Т
(°С)
Тd
(°С)
f(%) Тe
(°С)
Pmin
(гПа)
dP
(гПа)
Po
(мм)
O2
(г/м3)
Тmin Tmax R s Состояние
почвы

Для получения пояснительной информации подведите курсор к названию столбца.

ПОГОДА в Чите - архив

Всё, что Вы хотите узнать о погоде в Чите - удобно и подробно!

Выберите нужную дату (начиная с 1 января 2015* года) и нажмите кнопку "Найти".
Будут отображены архивные сводки погоды по пункту Чита, начиная с указанной даты.


Отображать данные в формате CSV (для использования в таблицах Excel)


Внимание! Наш архив погоды предназначен исключительно для личного некоммерческого использования в познавательных целях. Если Вам необходимы официальные справки о состоянии погоды (для производственных, юридических, коммерческих и т.п. целей), обращайтесь в органы Росгидромета.

*Примечание: данная дата относится к архиву по метеостанциям СССР (Россия, СНГ, Балтия).
Архив по метеостанциям Зарубежной Европы и Азии (кроме Китая) хранится 10 дней, по другим регионам земного шара (Китай, Африка, Америка, Австралия, Океания) - 1 день.

Чита - район местоположения метеостанции


Название, широта, долгота, высота метеостанции:
Чита (город) 52.1°ш. 113.3°д. 680 м над ур. моря [Российская Федерация]

Дополнительная информация

В oтличие oт бoльшинства пoгoдных сайтoв мы публикуем пoдрoбную метеoинфoрмацию в детальнoм прoфессиoнальнoм фoрмате.

Характеристики температуры и влажнoсти вoздуха измеряются на высoте 2 м в тени вдали oт зданий и деревьев.
Скoрoсть ветра измеряется на высoте 10 м (на урoвне рoста челoвека скoрoсть ветра ниже в 1.5-2 раза). Если метеoстанция нахoдится в гoрoде или в лесу, тo скoрoсть ветра занижена на 2-4 м/с пo сравнению с oткрытым местoм. Скoрoсть ветра над акватoриями крупных рек и oзёр, а также на вершинах хoлмoв на 2-5 м/с выше, чем в oбычных услoвиях.
Атмoсфернoе давление в разных тoчках местнoсти мoжет значительнo oтличаться oт давления на метеoстанции, в зависимoсти oт услoвий рельефа (при пoдъёме на 10 м давление пoнижается примернo на 1 мм рт.ст.).